Location: Newark
(1.4692°S, 78.8175°W)
Time: 01:58:32
(UTC+00:00)

N. Korean satellite - Visible Passes

Search period start: 16 October 2019 00:00
Search period end: 26 October 2019 00:00
Orbit: 455 x 508 km, 97.2° (Epoch: 14 October)

Date Brightness Start Highest point End Pass type
(mag) Time Alt. Az. Time Alt. Az. Time Alt. Az.
16 Oct 10.5 09:54:55 10° E 09:55:56 11° ESE 09:56:57 10° ESE visible
18 Oct 7.6 10:34:59 10° NNE 10:38:34 54° E 10:42:13 10° S visible
19 Oct 9.7 10:10:34 10° NE 10:13:22 21° ESE 10:16:13 10° SSE visible
19 Oct 10.0 23:31:04 10° SW 23:33:16 16° WSW 23:35:29 10° WNW visible
22 Oct 8.3 10:27:20 10° NNE 10:30:49 40° E 10:34:19 10° S visible
23 Oct 10.1 10:03:16 10° ENE 10:05:36 16° ESE 10:07:56 10° SE visible
23 Oct 9.6 23:22:46 10° SSW 23:25:27 21° WSW 23:28:06 10° NW visible
